| time (UTC) | temp F | wind direction | speed knots | gust knots | rain 1hr in | rain 24hr in | rain mn in | humidity % | barometer mb |
| 20260504150906 | 64 | 358 | 2.6 | 2.6 | 0.00 | 0.00 | 0.00 | 43 | 1013.5 |
| 20260504150358 | 64 | 202 | 3.5 | 6.1 | 0.00 | 0.00 | 0.00 | 39 | 1013.4 |
| 20260504140749 | 63 | 256 | 2.6 | 6.1 | 0.00 | 0.00 | 0.00 | 38 | 1013.6 |
| 20260504140241 | 63 | 227 | 1.7 | 2.6 | 0.00 | 0.00 | 0.00 | 38 | 1013.5 |
| 20260504130119 | 58 | 241 | 1.7 | 1.7 | 0.00 | 0.00 | 0.00 | 43 | 1014.3 |
| 20260504110605 | 49 | 266 | 0.9 | 1.7 | 0.00 | 0.00 | 0.00 | 57 | 1014.6 |
| 20260504100221 | 46 | 249 | 0.9 | 1.7 | 0.00 | 0.00 | 0.00 | 63 | 1014.4 |
| 20260504082005 | 44 | 247 | 0.0 | 0.0 | 0.00 | 0.00 | 0.00 | 67 | 1013.9 |
| 20260504081457 | 44 | 252 | 0.0 | 0.0 | 0.00 | 0.00 | 0.00 | 67 | 1013.9 |
| 20260504080949 | 44 | 257 | 0.0 | 0.0 | 0.00 | 0.00 | 0.00 | 65 | 1013.7 |
| 20260504080444 | 44 | 261 | 0.0 | 0.0 | 0.00 | 0.00 | 0.00 | 65 | 1014.0 |
| 20260504070323 | 47 | 257 | 0.0 | 0.9 | 0.00 | 0.00 | 0.00 | 55 | 1013.6 |
| 20260504060205 | 47 | 255 | 0.9 | 0.9 | 0.00 | 0.00 | 0.00 | 57 | 1013.3 |
| 20260504050549 | 43 | 259 | 0.0 | 0.0 | 0.00 | 0.00 | 0.00 | 65 | 1013.3 |
| 20260504045536 | 44 | 272 | 0.0 | 0.0 | 0.00 | 0.00 | 0.00 | 64 | 1013.3 |
| 20260504045031 | 44 | 269 | 0.0 | 0.0 | 0.00 | 0.00 | 0.00 | 63 | 1013.2 |
| 20260504044522 | 44 | 256 | 0.0 | 0.0 | 0.00 | 0.00 | 0.00 | 63 | 1013.5 |
| 20260504044017 | 44 | 256 | 0.0 | 0.0 | 0.00 | 0.00 | 0.00 | 63 | 1013.4 |
| 20260504043510 | 44 | 257 | 0.0 | 0.0 | 0.00 | 0.00 | 0.00 | 64 | 1013.6 |
| 20260504042717 | 44 | 258 | 0.0 | 0.0 | 0.00 | 0.00 | 0.00 | 59 | 1013.5 |
| 20260504041949 | 44 | 257 | 0.0 | 0.0 | 0.00 | 0.00 | 0.00 | 61 | 1013.5 |
| 20260504041444 | 44 | 257 | 0.0 | 0.0 | 0.00 | 0.00 | 0.00 | 63 | 1013.5 |
| 20260504041155 | 45 | 262 | 0.0 | 0.0 | 0.00 | 0.00 | 0.00 | 58 | 1013.3 |
| 20260504040431 | 45 | 263 | 0.0 | 0.0 | 0.00 | 0.00 | 0.00 | 61 | 1013.3 |
| 20260504035923 | 45 | 266 | 0.0 | 0.0 | 0.00 | 0.00 | 0.00 | 60 | 1013.4 |
| 20260504035418 | 45 | 265 | 0.0 | 0.0 | 0.00 | 0.00 | 0.00 | 60 | 1013.6 |
| 20260504034910 | 45 | 260 | 0.0 | 0.0 | 0.00 | 0.00 | 0.00 | 60 | 1013.4 |
| 20260504034405 | 45 | 260 | 0.0 | 0.0 | 0.00 | 0.00 | 0.00 | 61 | 1013.4 |
| 20260504033857 | 45 | 263 | 0.0 | 0.0 | 0.00 | 0.00 | 0.00 | 60 | 1013.3 |
| 20260504033349 | 45 | 264 | 0.0 | 0.0 | 0.00 | 0.00 | 0.00 | 60 | 1013.4 |
| 20260504032844 | 45 | 253 | 0.0 | 0.0 | 0.00 | 0.00 | 0.00 | 60 | 1013.2 |
| 20260504032554 | 45 | 257 | 0.0 | 0.0 | 0.00 | 0.00 | 0.00 | 60 | 1013.2 |
| 20260504032051 | 46 | 257 | 0.0 | 0.0 | 0.00 | 0.00 | 0.00 | 59 | 1013.1 |
| 20260504031544 | 46 | 257 | 0.0 | 0.0 | 0.00 | 0.00 | 0.00 | 57 | 1013.3 |
| 20260504030818 | 46 | 257 | 0.0 | 0.0 | 0.00 | 0.00 | 0.00 | 57 | 1013.0 |
| 20260504030305 | 47 | 252 | 0.0 | 0.9 | 0.00 | 0.00 | 0.00 | 54 | 1013.2 |
| 20260504025759 | 46 | 249 | 0.0 | 1.7 | 0.00 | 0.00 | 0.00 | 55 | 1013.2 |
| 20260504025251 | 47 | 252 | 0.0 | 0.9 | 0.00 | 0.00 | 0.00 | 55 | 1013.1 |
| 20260504024746 | 46 | 254 | 0.0 | 0.9 | 0.00 | 0.00 | 0.00 | 55 | 1013.1 |
| 20260504024238 | 46 | 251 | 0.9 | 0.9 | 0.00 | 0.00 | 0.00 | 55 | 1013.2 |
| 20260504023733 | 46 | 252 | 0.0 | 0.0 | 0.00 | 0.00 | 0.00 | 55 | 1013.4 |
| 20260504023225 | 46 | 266 | 0.0 | 0.0 | 0.00 | 0.00 | 0.00 | 57 | 1013.3 |
| 20260504022716 | 46 | 269 | 0.0 | 0.0 | 0.00 | 0.00 | 0.00 | 55 | 1013.2 |
| 20260504022212 | 46 | 263 | 0.0 | 0.0 | 0.00 | 0.00 | 0.00 | 57 | 1013.4 |
| 20260504021704 | 46 | 264 | 0.0 | 0.0 | 0.00 | 0.00 | 0.00 | 53 | 1013.3 |
| 20260504021158 | 46 | 263 | 0.0 | 0.0 | 0.00 | 0.00 | 0.00 | 55 | 1013.3 |
| 20260504020651 | 46 | 264 | 0.0 | 0.0 | 0.00 | 0.00 | 0.00 | 52 | 1013.3 |
| 20260504020145 | 46 | 263 | 0.0 | 0.0 | 0.00 | 0.00 | 0.00 | 53 | 1013.2 |
| 20260504015638 | 46 | 263 | 0.0 | 0.0 | 0.00 | 0.00 | 0.00 | 52 | 1013.1 |
| 20260504015133 | 47 | 263 | 0.0 | 0.0 | 0.00 | 0.00 | 0.00 | 54 | 1013.3 |
| 20260504014625 | 47 | 263 | 0.0 | 0.0 | 0.00 | 0.00 | 0.00 | 50 | 1013.2 |
| 20260504014117 | 47 | 263 | 0.0 | 0.0 | 0.00 | 0.00 | 0.00 | 48 | 1013.3 |
| 20260504013612 | 47 | 263 | 0.0 | 0.0 | 0.00 | 0.00 | 0.00 | 51 | 1013.0 |
| 20260504013324 | 47 | 263 | 0.0 | 0.0 | 0.00 | 0.00 | 0.00 | 52 | 1013.1 |
| 20260504012559 | 48 | 263 | 0.0 | 0.0 | 0.00 | 0.00 | 0.00 | 50 | 1012.8 |
| 20260504012055 | 48 | 263 | 0.0 | 0.0 | 0.00 | 0.00 | 0.00 | 49 | 1013.2 |
| 20260504011547 | 48 | 263 | 0.0 | 0.0 | 0.00 | 0.00 | 0.00 | 47 | 1013.1 |
| 20260504011041 | 48 | 264 | 0.0 | 0.0 | 0.00 | 0.00 | 0.00 | 45 | 1012.9 |
| 20260504010533 | 48 | 244 | 0.0 | 0.0 | 0.00 | 0.00 | 0.00 | 47 | 1012.7 |
| 20260504010029 | 49 | 241 | 0.0 | 0.0 | 0.00 | 0.00 | 0.00 | 49 | 1012.7 |
| 20260504005521 | 49 | 244 | 0.0 | 0.0 | 0.00 | 0.00 | 0.00 | 49 | 1012.6 |
| 20260504005012 | 49 | 244 | 0.0 | 0.0 | 0.00 | 0.00 | 0.00 | 49 | 1012.3 |
| 20260504004727 | 50 | 244 | 0.0 | 0.0 | 0.00 | 0.00 | 0.00 | 50 | 1012.4 |
| 20260504004000 | 50 | 244 | 0.0 | 0.0 | 0.00 | 0.00 | 0.00 | 49 | 1012.2 |
| 20260504003455 | 50 | 244 | 0.0 | 0.0 | 0.00 | 0.00 | 0.00 | 47 | 1012.2 |
| 20260504002947 | 51 | 244 | 0.0 | 0.0 | 0.00 | 0.00 | 0.00 | 46 | 1012.3 |
| 20260504002442 | 51 | 244 | 0.0 | 0.0 | 0.00 | 0.00 | 0.00 | 44 | 1012.0 |
| 20260504001934 | 51 | 243 | 0.0 | 0.0 | 0.00 | 0.00 | 0.00 | 45 | 1012.0 |
| 20260504001429 | 51 | 244 | 0.0 | 0.0 | 0.00 | 0.00 | 0.00 | 44 | 1012.1 |
| 20260504000921 | 51 | 244 | 0.0 | 0.0 | 0.00 | 0.00 | 0.00 | 41 | 1012.0 |
| 20260504000413 | 51 | 244 | 0.0 | 0.0 | 0.00 | 0.00 | 0.00 | 43 | 1011.9 |
| 20260503235907 | 52 | 245 | 0.0 | 0.0 | 0.00 | 0.00 | 0.00 | 42 | 1011.6 |
| 20260503235354 | 52 | 244 | 0.0 | 0.0 | 0.00 | 0.00 | 0.00 | 40 | 1011.8 |
| 20260503234849 | 52 | 279 | 0.0 | 0.0 | 0.00 | 0.00 | 0.00 | 37 | 1011.6 |
| 20260503234341 | 53 | 266 | 0.0 | 0.0 | 0.00 | 0.00 | 0.00 | 36 | 1011.4 |
| 20260503233836 | 54 | 269 | 0.0 | 1.7 | 0.00 | 0.00 | 0.00 | 32 | 1011.3 |
| 20260503233320 | 54 | 262 | 0.0 | 0.9 | 0.00 | 0.00 | 0.00 | 32 | 1011.2 |
| 20260503232813 | 54 | 246 | 0.0 | 0.0 | 0.00 | 0.00 | 0.00 | 31 | 1011.4 |
| 20260503232301 | 55 | 285 | 0.0 | 1.7 | 0.00 | 0.00 | 0.00 | 30 | 1011.1 |
| 20260503231753 | 55 | 293 | 0.9 | 1.7 | 0.00 | 0.00 | 0.00 | 31 | 1011.3 |
| 20260503231245 | 55 | 349 | 1.7 | 2.6 | 0.00 | 0.00 | 0.00 | 30 | 1011.3 |
| 20260503230740 | 56 | 281 | 0.0 | 0.9 | 0.00 | 0.00 | 0.00 | 31 | 1011.0 |
| 20260503230232 | 56 | 343 | 1.7 | 2.6 | 0.00 | 0.00 | 0.00 | 29 | 1011.1 |
| 20260503225727 | 56 | 202 | 0.9 | 2.6 | 0.00 | 0.00 | 0.00 | 29 | 1011.0 |
| 20260503225219 | 56 | 298 | 0.0 | 1.7 | 0.00 | 0.00 | 0.00 | 30 | 1010.7 |
| 20260503224714 | 56 | 305 | 1.7 | 7.8 | 0.00 | 0.00 | 0.00 | 29 | 1011.1 |
| 20260503224652 | 56 | 240 | 0.9 | 2.6 | 0.00 | 0.00 | 0.00 | 31 | 1010.8 |
| 20260503223701 | 56 | 237 | 2.6 | 2.6 | 0.00 | 0.00 | 0.00 | 30 | 1010.8 |
| 20260503223152 | 56 | 301 | 1.7 | 5.2 | 0.00 | 0.00 | 0.00 | 30 | 1010.7 |
| 20260503222644 | 56 | 268 | 0.9 | 3.5 | 0.00 | 0.00 | 0.00 | 33 | 1010.8 |
| 20260503222133 | 56 | 350 | 3.5 | 11.3 | 0.00 | 0.00 | 0.00 | 29 | 1010.7 |
| 20260503221628 | 56 | 292 | 2.6 | 3.5 | 0.00 | 0.00 | 0.00 | 29 | 1010.7 |
| 20260503221343 | 56 | 257 | 2.6 | 6.1 | 0.00 | 0.00 | 0.00 | 29 | 1010.6 |
| 20260503220613 | 56 | 276 | 0.0 | 5.2 | 0.00 | 0.00 | 0.00 | 32 | 1010.8 |
| 20260503220108 | 56 | 303 | 3.5 | 7.0 | 0.00 | 0.00 | 0.00 | 29 | 1010.6 |
| 20260503215600 | 56 | 306 | 1.7 | 7.0 | 0.00 | 0.00 | 0.00 | 31 | 1010.6 |
| 20260503215055 | 56 | 273 | 0.9 | 1.7 | 0.00 | 0.00 | 0.00 | 32 | 1010.8 |
| 20260503214547 | 56 | 241 | 2.6 | 3.5 | 0.00 | 0.00 | 0.00 | 32 | 1011.1 |
| 20260503214042 | 56 | 270 | 0.0 | 8.7 | 0.00 | 0.00 | 0.00 | 32 | 1010.7 |
| 20260503213534 | 56 | 279 | 2.6 | 3.5 | 0.00 | 0.00 | 0.00 | 32 | 1011.0 |
| 20260503213029 | 56 | 346 | 2.6 | 2.6 | 0.00 | 0.00 | 0.00 | 33 | 1010.7 |
| 20260503212520 | 56 | 324 | 1.7 | 3.5 | 0.00 | 0.00 | 0.00 | 31 | 1010.7 |
| 20260503212012 | 56 | 273 | 0.9 | 7.8 | 0.00 | 0.00 | 0.00 | 33 | 1010.8 |
| 20260503211728 | 56 | 273 | 0.0 | 7.8 | 0.00 | 0.00 | 0.00 | 34 | 1010.8 |
| 20260503210959 | 56 | 343 | 2.6 | 5.2 | 0.00 | 0.00 | 0.00 | 34 | 1010.7 |
| 20260503210714 | 56 | 272 | 1.7 | 2.6 | 0.00 | 0.00 | 0.00 | 35 | 1010.6 |
| 20260503210206 | 56 | 344 | 2.6 | 6.1 | 0.00 | 0.00 | 0.00 | 33 | 1010.9 |
| 20260503205441 | 56 | 323 | 4.3 | 7.0 | 0.00 | 0.00 | 0.00 | 33 | 1010.7 |
| 20260503204928 | 55 | 301 | 2.6 | 2.6 | 0.00 | 0.00 | 0.00 | 33 | 1010.6 |
| 20260503204423 | 55 | 355 | 2.6 | 9.6 | 0.00 | 0.00 | 0.00 | 35 | 1010.8 |
| 20260503203915 | 55 | 261 | 2.6 | 5.2 | 0.00 | 0.00 | 0.00 | 35 | 1010.8 |
| 20260503203410 | 55 | 2 | 2.6 | 7.0 | 0.00 | 0.00 | 0.00 | 35 | 1010.9 |
| 20260503203123 | 55 | 19 | 4.3 | 5.2 | 0.00 | 0.00 | 0.00 | 34 | 1010.8 |
| 20260503202616 | 55 | 247 | 1.7 | 2.6 | 0.00 | 0.00 | 0.00 | 36 | 1010.8 |
| 20260503201849 | 55 | 0 | 3.5 | 5.2 | 0.00 | 0.00 | 0.00 | 35 | 1010.8 |
| 20260503201340 | 55 | 261 | 1.7 | 7.0 | 0.00 | 0.00 | 0.00 | 36 | 1010.9 |
| 20260503200836 | 56 | 341 | 1.7 | 2.6 | 0.00 | 0.00 | 0.00 | 35 | 1010.6 |
| 20260503200327 | 56 | 293 | 0.9 | 3.5 | 0.00 | 0.00 | 0.00 | 36 | 1010.9 |
| 20260503200044 | 55 | 274 | 1.7 | 2.6 | 0.00 | 0.00 | 0.00 | 36 | 1010.9 |
| 20260503195314 | 55 | 303 | 5.2 | 12.2 | 0.00 | 0.00 | 0.00 | 34 | 1010.8 |
| 20260503194805 | 54 | 236 | 0.9 | 3.5 | 0.00 | 0.00 | 0.00 | 36 | 1010.8 |
| 20260503194522 | 53 | 290 | 3.5 | 5.2 | 0.00 | 0.00 | 0.00 | 36 | 1010.9 |
| 20260503193752 | 54 | 330 | 2.6 | 8.7 | 0.00 | 0.00 | 0.00 | 36 | 1010.8 |
| 20260503193247 | 54 | 249 | 0.0 | 7.8 | 0.00 | 0.00 | 0.00 | 37 | 1011.0 |
| 20260503192732 | 54 | 335 | 1.7 | 3.5 | 0.00 | 0.00 | 0.00 | 36 | 1011.0 |
| 20260503192228 | 55 | 352 | 3.5 | 5.2 | 0.00 | 0.00 | 0.00 | 35 | 1011.1 |
| 20260503191720 | 53 | 275 | 1.7 | 7.8 | 0.00 | 0.00 | 0.00 | 37 | 1011.2 |
| 20260503191215 | 53 | 356 | 10.4 | 13.0 | 0.00 | 0.00 | 0.00 | 36 | 1011.2 |
| 20260503190707 | 54 | 316 | 3.5 | 5.2 | 0.00 | 0.00 | 0.00 | 36 | 1011.1 |
| 20260503190201 | 54 | 152 | 2.6 | 5.2 | 0.00 | 0.00 | 0.00 | 36 | 1011.0 |
| 20260503185653 | 54 | 268 | 6.1 | 11.3 | 0.00 | 0.00 | 0.00 | 35 | 1011.3 |
| 20260503185148 | 54 | 243 | 1.7 | 5.2 | 0.00 | 0.00 | 0.00 | 34 | 1011.1 |
| 20260503184641 | 54 | 349 | 7.8 | 11.3 | 0.00 | 0.00 | 0.00 | 35 | 1011.0 |
| 20260503184352 | 54 | 292 | 3.5 | 8.7 | 0.00 | 0.00 | 0.00 | 37 | 1011.0 |
| 20260503183627 | 55 | 272 | 1.7 | 5.2 | 0.00 | 0.00 | 0.00 | 37 | 1011.1 |
| 20260503183342 | 54 | 244 | 0.9 | 7.8 | 0.00 | 0.00 | 0.00 | 37 | 1011.2 |
| 20260503182615 | 54 | 255 | 1.7 | 6.1 | 0.00 | 0.00 | 0.00 | 36 | 1010.9 |
| 20260503182111 | 53 | 270 | 0.9 | 5.2 | 0.00 | 0.00 | 0.00 | 36 | 1011.0 |
| 20260503181603 | 54 | 21 | 1.7 | 7.0 | 0.00 | 0.00 | 0.00 | 34 | 1011.1 |
| 20260503181058 | 54 | 298 | 3.5 | 12.2 | 0.00 | 0.00 | 0.00 | 33 | 1011.1 |
| 20260503180550 | 54 | 334 | 2.6 | 5.2 | 0.00 | 0.00 | 0.00 | 34 | 1011.1 |
| 20260503180307 | 54 | 190 | 5.2 | 9.6 | 0.00 | 0.00 | 0.00 | 35 | 1011.3 |
| 20260503175537 | 55 | 279 | 5.2 | 7.8 | 0.00 | 0.00 | 0.00 | 34 | 1010.9 |
| 20260503175029 | 54 | 338 | 0.9 | 7.0 | 0.00 | 0.00 | 0.00 | 35 | 1010.9 |
| 20260503174524 | 53 | 316 | 4.3 | 13.0 | 0.00 | 0.00 | 0.00 | 34 | 1010.9 |
| 20260503174016 | 54 | 282 | 3.5 | 7.0 | 0.00 | 0.00 | 0.00 | 35 | 1011.0 |
| 20260503173511 | 53 | 308 | 2.6 | 3.5 | 0.00 | 0.00 | 0.00 | 35 | 1011.1 |
| 20260503173003 | 54 | 348 | 3.5 | 5.2 | 0.00 | 0.00 | 0.00 | 36 | 1010.9 |
| 20260503172458 | 53 | 212 | 1.7 | 3.5 | 0.00 | 0.00 | 0.00 | 36 | 1010.9 |
| 20260503171953 | 55 | 311 | 0.9 | 1.7 | 0.00 | 0.00 | 0.00 | 35 | 1011.1 |
| 20260503171445 | 52 | 268 | 1.7 | 5.2 | 0.00 | 0.00 | 0.00 | 37 | 1011.2 |
| 20260503170940 | 52 | 328 | 5.2 | 13.9 | 0.00 | 0.00 | 0.00 | 36 | 1011.3 |
| 20260503170432 | 53 | 352 | 3.5 | 7.8 | 0.00 | 0.00 | 0.00 | 35 | 1011.2 |